ARIANE 5 R/B, 54745

Orbit data source: Space-Track

ARIANE 5 R/B, 54745 is space debris in HEO originally from a launch on Tue, 13 Dec 2022 UTC launched from the French Guiana (FRGUI). Debris objects in space refer to the collection of defunct objects orbiting the Earth. Examples of debris include non-operational satellites, rocket bodies, and fragments generated from explosions, collisions, or faulty payload assembly.

Loading next visibility...
Identifier
54745, 2022-170E
Orbit
HEO
Country
Flag of FRFR
Related business
Manufacturer
ArianeGroup
Mission
Spacecraft
Bus & Motor
ESC-A, Unknown motor
Mass
~5,000 kg wet, ~5,000 kg dry
Launch date (UTC)
2022-12-13 (3 years ago)
Launch vehicle
Unknown
Launch site
French Guiana (FRGUI)
Object type
Payload
Rocket body
Debris
Shape & HBR
Cyl + 1 Nozzle, 3.5 m
Radar Cross Section
41.627 m², Large (>1 m²)

Expand to show TLE details & history
Last TLE update: 7 hours ago

TLE from 7 hours ago
0 ARIANE 5 R/B
1 54745U 22170E   25308.38578653  .00008624  00000-0  97985-3 0  9991
2 54745   6.0923  74.3003 6857359  93.1659 340.7176  2.85009881 26658
Epoch: 2025-11-04T09:15Z
TLE epoch observation values (Epoch: 2025-11-04T09:15:31.956Z)
Latitude
0.00008°
Longitude
-108.5487°
Altitude
5,220.774 km
Speed
7.054 km/s
True Right ascension
04h 56m 49s
True Declination
0° 00' 00"
Sunlit
Object was in daylight at epoch
Visualization orbit readout
Latitude
Unknown
Longitude
Unknown
Altitude
Unknown
Speed
Unknown
Apparent Right ascension
Unknown
Apparent Declination
Unknown
Sunlit
N/A
Visualization observer readout
Local Sidereal Time
12:10:13
Azimuth
Unknown
Elevation
Unknown
Doppler factor
Unknown
Orbital elements
Apogee altitude
29,053.848 km
Perigee altitude
227.287 km
Semi-major axis
21,018.704 km
Eccentricity
0.68574
Inclination
6.0923°
RAAN
74.3003°
Arg. of periapsis
93.1659°
True anomaly
267.06479°
Mean anomaly
340.7176°
Eccentric anomaly
311.11869°
Mean motion
0.71225 °/min
Orbital period
505.44 mins
BSTAR
0.00097985
Loading maneuver chart data...
Computing Atmospheric mass density...
Loading historical data...
Loading historical data...
Loading historical data...
Loading historical data...
Loading historical data...
Loading historical data...
Loading historical data...
Other satellites on launch #170 in the year 2022 (2022-12-13 UTC)

Documentation

Showing up to 5 results
|